owner,sensor,date,latitude,longitude,vertical_datum,wind_speed,wind_to_direction,wind_speed_of_gust,qcFlag 
LUMCON,ioos:station:LUMCON:103:1,2009-08-01T01:00:00Z,30.1889,-90.1683,1.0,4.6,230.0,7.2,'11111222,11111222,11111222' 
LUMCON,ioos:station:LUMCON:103:1,2009-08-01T02:00:00Z,30.1889,-90.1683,1.0,3.6,210.0,5.7,'11111222,11111222,11111222' 
LUMCON,ioos:station:LUMCON:103:1,2009-08-01T03:00:00Z,30.1889,-90.1683,1.0,2.6,230.0,3.1,'11111222,11111222,11111222' 
LUMCON,ioos:station:LUMCON:103:1,2009-08-01T04:00:00Z,30.1889,-90.1683,1.0,3.6,200.0,5.1,'11111222,11111222,11111222' 
LUMCON,ioos:station:LUMCON:103:1,2009-08-01T05:00:00Z,30.1889,-90.1683,1.0,3.1,200.0,5.1,'11111222,11111222,11111222' 
LUMCON,ioos:station:LUMCON:103:1,2009-08-01T06:00:00Z,30.1889,-90.1683,1.0,3.1,200.0,5.1,'11111222,11111222,11111222' 
LUMCON,ioos:station:LUMCON:103:1,2009-08-01T07:00:00Z,30.1889,-90.1683,1.0,3.1,220.0,6.2,'11111222,11111222,11111222' 
LUMCON,ioos:station:LUMCON:103:1,2009-08-03T17:00:00Z,30.1889,-90.1683,1.0,2.1,250.0,4.1,'11111222,11111222,11111222' 
LUMCON,ioos:station:LUMCON:103:1,2009-08-03T18:00:00Z,30.1889,-90.1683,1.0,2.1,210.0,3.1,'11111222,11111222,11111222' 
LUMCON,ioos:station:LUMCON:103:1,2009-08-03T19:00:00Z,30.1889,-90.1683,1.0,3.1,200.0,4.1,'11111222,11111222,11111222' 
LUMCON,ioos:station:LUMCON:103:1,2009-08-03T20:00:00Z,30.1889,-90.1683,1.0,2.6,160.0,4.1,'11111222,11111222,11111222' 
LUMCON,ioos:station:LUMCON:103:1,2009-08-03T21:00:00Z,30.1889,-90.1683,1.0,4.6,200.0,6.2,'11111222,11111222,11111222' 
LUMCON,ioos:station:LUMCON:103:1,2009-08-03T22:00:00Z,30.1889,-90.1683,1.0,4.6,190.0,6.7,'11111222,11111222,11111222' 
LUMCON,ioos:station:LUMCON:103:1,2009-08-03T23:00:00Z,30.1889,-90.1683,1.0,3.6,210.0,5.1,'11111222,11111222,11111222' 
LUMCON,ioos:station:LUMCON:103:1,2009-08-04T00:00:00Z,30.1889,-90.1683,1.0,3.6,200.0,5.7,'11111222,11111222,11111222' 
LUMCON,ioos:station:LUMCON:103:1,2009-08-04T01:00:00Z,30.1889,-90.1683,1.0,5.1,200.0,8.2,'11111222,11111222,11111222' 
LUMCON,ioos:station:LUMCON:103:1,2009-08-04T02:00:00Z,30.1889,-90.1683,1.0,4.1,210.0,7.2,'11111222,11111222,11111222' 
LUMCON,ioos:station:LUMCON:103:1,2009-08-04T03:00:00Z,30.1889,-90.1683,1.0,4.1,220.0,7.7,'11111222,11111222,11111222' 
LUMCON,ioos:station:LUMCON:103:1,2009-08-04T04:00:00Z,30.1889,-90.1683,1.0,2.6,220.0,4.6,'11111222,11111222,11111222' 
LUMCON,ioos:station:LUMCON:103:1,2009-08-04T05:00:00Z,30.1889,-90.1683,1.0,3.1,220.0,5.1,'11111222,11111222,11111222' 
LUMCON,ioos:station:LUMCON:103:1,2009-08-04T06:00:00Z,30.1889,-90.1683,1.0,2.6,220.0,3.6,'11111222,11111222,11111222' 
LUMCON,ioos:station:LUMCON:103:1,2009-08-04T07:00:00Z,30.1889,-90.1683,1.0,2.6,230.0,3.6,'11111222,11111222,11111222' 
LUMCON,ioos:station:LUMCON:103:1,2009-08-04T08:00:00Z,30.1889,-90.1683,1.0,2.1,220.0,3.6,'11111222,11111222,11111222' 
LUMCON,ioos:station:LUMCON:103:1,2009-08-04T09:00:00Z,30.1889,-90.1683,1.0,2.1,240.0,2.1,'11111222,11111222,11111222' 
LUMCON,ioos:station:LUMCON:103:1,2009-08-04T10:00:00Z,30.1889,-90.1683,1.0,1.5,240.0,2.6,'11111222,11111222,11111222' 
LUMCON,ioos:station:LUMCON:103:1,2009-08-04T11:00:00Z,30.1889,-90.1683,1.0,1.5,250.0,3.1,'11111222,11111222,11111222' 
LUMCON,ioos:station:LUMCON:103:1,2009-08-04T13:00:00Z,30.1889,-90.1683,1.0,1.5,250.0,3.1,'11111222,11111222,11111222' 
LUMCON,ioos:station:LUMCON:103:1,2009-08-04T15:00:00Z,30.1889,-90.1683,1.0,3.1,260.0,4.1,'11111222,11111222,11111222' 
LUMCON,ioos:station:LUMCON:103:1,2009-08-04T16:00:00Z,30.1889,-90.1683,1.0,3.6,230.0,4.6,'11111222,11111222,11111222' 
LUMCON,ioos:station:LUMCON:103:1,2009-08-04T20:00:00Z,30.1889,-90.1683,1.0,3.6,130.0,4.1,'11111222,11111222,11111222' 
LUMCON,ioos:station:LUMCON:103:1,2009-08-04T21:00:00Z,30.1889,-90.1683,1.0,2.6,150.0,3.1,'11111222,11111222,11111222' 
LUMCON,ioos:station:LUMCON:103:1,2009-08-04T22:00:00Z,30.1889,-90.1683,1.0,3.6,160.0,4.1,'11111222,11111222,11111222' 
LUMCON,ioos:station:LUMCON:103:1,2009-08-04T23:00:00Z,30.1889,-90.1683,1.0,3.1,160.0,3.6,'11111222,11111222,11111222' 
LUMCON,ioos:station:LUMCON:103:1,2009-08-05T00:00:00Z,30.1889,-90.1683,1.0,3.6,170.0,4.6,'11111222,11111222,11111222' 
LUMCON,ioos:station:LUMCON:103:1,2009-08-05T01:00:00Z,30.1889,-90.1683,1.0,7.2,170.0,8.2,'11111222,11111222,11111222' 
LUMCON,ioos:station:LUMCON:103:1,2009-08-05T02:00:00Z,30.1889,-90.1683,1.0,6.7,190.0,7.7,'11111222,11111222,11111222' 
LUMCON,ioos:station:LUMCON:103:1,2009-08-05T03:00:00Z,30.1889,-90.1683,1.0,6.7,180.0,7.7,'11111222,11111222,11111222' 
LUMCON,ioos:station:LUMCON:103:1,2009-08-05T04:00:00Z,30.1889,-90.1683,1.0,4.1,230.0,5.1,'11111222,11111222,11111222' 
LUMCON,ioos:station:LUMCON:103:1,2009-08-05T05:00:00Z,30.1889,-90.1683,1.0,4.1,220.0,5.1,'11111222,11111222,11111222' 
LUMCON,ioos:station:LUMCON:103:1,2009-08-05T06:00:00Z,30.1889,-90.1683,1.0,2.6,250.0,3.6,'11111222,11111222,11111222' 
LUMCON,ioos:station:LUMCON:103:1,2009-08-05T07:00:00Z,30.1889,-90.1683,1.0,3.1,220.0,4.1,'11111222,11111222,11111222' 
LUMCON,ioos:station:LUMCON:103:1,2009-08-05T08:00:00Z,30.1889,-90.1683,1.0,2.6,250.0,3.1,'11111222,11111222,11111222' 
LUMCON,ioos:station:LUMCON:103:1,2009-08-05T09:00:00Z,30.1889,-90.1683,1.0,2.1,270.0,2.1,'11111222,11111222,11111222' 
LUMCON,ioos:station:LUMCON:103:1,2009-08-05T10:00:00Z,30.1889,-90.1683,1.0,1.5,240.0,2.1,'11111222,11111222,11111222' 
LUMCON,ioos:station:LUMCON:103:1,2009-08-05T11:00:00Z,30.1889,-90.1683,1.0,2.1,300.0,2.6,'11111222,11111222,11111222' 
LUMCON,ioos:station:LUMCON:103:1,2009-08-05T12:00:00Z,30.1889,-90.1683,1.0,2.6,290.0,3.6,'11111222,11111222,11111222' 
LUMCON,ioos:station:LUMCON:103:1,2009-08-05T13:00:00Z,30.1889,-90.1683,1.0,3.1,290.0,3.6,'11111222,11111222,11111222' 
LUMCON,ioos:station:LUMCON:103:1,2009-08-05T14:00:00Z,30.1889,-90.1683,1.0,2.6,310.0,4.1,'11111222,11111222,11111222' 
LUMCON,ioos:station:LUMCON:103:1,2009-08-05T15:00:00Z,30.1889,-90.1683,1.0,3.1,330.0,5.1,'11111222,11111222,11111222' 
LUMCON,ioos:station:LUMCON:103:1,2009-08-05T16:00:00Z,30.1889,-90.1683,1.0,1.5,10.0,3.1,'11111222,11111222,11111222' 
LUMCON,ioos:station:LUMCON:103:1,2009-08-20T16:00:00Z,30.1889,-90.1683,1.0,4.1,150.0,5.7,'11111222,11111222,11111222' 
LUMCON,ioos:station:LUMCON:103:1,2009-08-20T17:00:00Z,30.1889,-90.1683,1.0,5.7,150.0,9.3,'11111222,11111222,11111222' 
LUMCON,ioos:station:LUMCON:103:1,2009-08-20T18:00:00Z,30.1889,-90.1683,1.0,6.2,160.0,8.8,'11111222,11111222,11111222' 
LUMCON,ioos:station:LUMCON:103:1,2009-08-20T19:00:00Z,30.1889,-90.1683,1.0,3.6,230.0,6.2,'11111222,11111222,11111222' 
LUMCON,ioos:station:LUMCON:103:1,2009-08-20T20:00:00Z,30.1889,-90.1683,1.0,3.1,200.0,5.7,'11111222,11111222,11111222' 
LUMCON,ioos:station:LUMCON:103:1,2009-08-20T21:00:00Z,30.1889,-90.1683,1.0,4.6,190.0,6.2,'11111222,11111222,11111222' 
LUMCON,ioos:station:LUMCON:103:1,2009-08-20T22:00:00Z,30.1889,-90.1683,1.0,3.1,200.0,5.1,'11111222,11111222,11111222' 
LUMCON,ioos:station:LUMCON:103:1,2009-08-20T23:00:00Z,30.1889,-90.1683,1.0,3.1,190.0,5.1,'11111222,11111222,11111222' 
LUMCON,ioos:station:LUMCON:103:1,2009-08-21T00:00:00Z,30.1889,-90.1683,1.0,1.5,210.0,3.6,'11111222,11111222,11111222' 
LUMCON,ioos:station:LUMCON:103:1,2009-08-21T01:00:00Z,30.1889,-90.1683,1.0,1.5,40.0,2.6,'11111222,11111222,11111222' 
LUMCON,ioos:station:LUMCON:103:1,2009-08-21T02:00:00Z,30.1889,-90.1683,1.0,2.1,20.0,3.1,'11111222,11111222,11111222' 
LUMCON,ioos:station:LUMCON:103:1,2009-08-21T03:00:00Z,30.1889,-90.1683,1.0,3.6,150.0,6.2,'11111222,11111222,11111222' 
LUMCON,ioos:station:LUMCON:103:1,2009-08-21T04:00:00Z,30.1889,-90.1683,1.0,3.6,180.0,5.1,'11111222,11111222,11111222' 
LUMCON,ioos:station:LUMCON:103:1,2009-08-21T05:00:00Z,30.1889,-90.1683,1.0,3.6,230.0,7.2,'11111222,11111222,11111222' 
LUMCON,ioos:station:LUMCON:103:1,2009-08-21T06:00:00Z,30.1889,-90.1683,1.0,3.1,70.0,5.7,'11111222,11111222,11111222' 
LUMCON,ioos:station:LUMCON:103:1,2009-08-21T07:00:00Z,30.1889,-90.1683,1.0,3.6,90.0,7.2,'11111222,11111222,11111222' 
LUMCON,ioos:station:LUMCON:103:1,2009-08-21T08:00:00Z,30.1889,-90.1683,1.0,3.1,110.0,5.7,'11111222,11111222,11111222' 
LUMCON,ioos:station:LUMCON:103:1,2009-08-21T09:00:00Z,30.1889,-90.1683,1.0,2.6,280.0,4.1,'11111222,11111222,11111222' 
LUMCON,ioos:station:LUMCON:103:1,2009-08-21T10:00:00Z,30.1889,-90.1683,1.0,3.1,240.0,5.1,'11111222,11111222,11111222' 
LUMCON,ioos:station:LUMCON:103:1,2009-08-21T11:00:00Z,30.1889,-90.1683,1.0,2.1,250.0,3.1,'11111222,11111222,11111222' 
LUMCON,ioos:station:LUMCON:103:1,2009-08-21T12:00:00Z,30.1889,-90.1683,1.0,2.6,270.0,3.1,'11111222,11111222,11111222' 
LUMCON,ioos:station:LUMCON:103:1,2009-08-21T13:00:00Z,30.1889,-90.1683,1.0,1.5,260.0,4.1,'11111222,11111222,11111222' 
LUMCON,ioos:station:LUMCON:103:1,2009-08-21T14:00:00Z,30.1889,-90.1683,1.0,1.5,200.0,3.6,'11111222,11111222,11111222' 
LUMCON,ioos:station:LUMCON:103:1,2009-08-21T15:00:00Z,30.1889,-90.1683,1.0,3.1,210.0,6.7,'11111222,11111222,11111222' 
LUMCON,ioos:station:LUMCON:103:1,2009-08-21T16:00:00Z,30.1889,-90.1683,1.0,4.1,250.0,7.2,'11111222,11111222,11111222' 
LUMCON,ioos:station:LUMCON:103:1,2009-08-21T17:00:00Z,30.1889,-90.1683,1.0,4.1,180.0,6.2,'11111222,11111222,11111222' 
LUMCON,ioos:station:LUMCON:103:1,2009-08-21T18:00:00Z,30.1889,-90.1683,1.0,5.1,310.0,9.3,'11111222,11111222,11111222' 
LUMCON,ioos:station:LUMCON:103:1,2009-08-21T19:00:00Z,30.1889,-90.1683,1.0,1.5,280.0,2.6,'11111222,11111222,11111222' 
LUMCON,ioos:station:LUMCON:103:1,2009-08-21T20:00:00Z,30.1889,-90.1683,1.0,4.6,100.0,8.2,'11111222,11111222,11111222' 
LUMCON,ioos:station:LUMCON:103:1,2009-08-21T21:00:00Z,30.1889,-90.1683,1.0,6.2,140.0,9.8,'11111222,11111222,11111222' 
LUMCON,ioos:station:LUMCON:103:1,2009-08-21T22:00:00Z,30.1889,-90.1683,1.0,4.1,200.0,8.2,'11111222,11111222,11111222' 
LUMCON,ioos:station:LUMCON:103:1,2009-08-21T23:00:00Z,30.1889,-90.1683,1.0,4.6,210.0,6.2,'11111222,11111222,11111222' 
LUMCON,ioos:station:LUMCON:103:1,2009-08-22T00:00:00Z,30.1889,-90.1683,1.0,4.1,220.0,5.1,'11111222,11111222,11111222' 
LUMCON,ioos:station:LUMCON:103:1,2009-08-22T01:00:00Z,30.1889,-90.1683,1.0,2.6,220.0,4.1,'11111222,11111222,11111222' 
LUMCON,ioos:station:LUMCON:103:1,2009-08-22T02:00:00Z,30.1889,-90.1683,1.0,2.1,230.0,4.1,'11111222,11111222,11111222' 
LUMCON,ioos:station:LUMCON:103:1,2009-08-22T03:00:00Z,30.1889,-90.1683,1.0,3.1,140.0,5.1,'11111222,11111222,11111222' 
LUMCON,ioos:station:LUMCON:103:1,2009-08-22T04:00:00Z,30.1889,-90.1683,1.0,3.1,220.0,4.6,'11111222,11111222,11111222' 
LUMCON,ioos:station:LUMCON:103:1,2009-08-22T05:00:00Z,30.1889,-90.1683,1.0,3.1,230.0,3.6,'11111222,11111222,11111222' 
LUMCON,ioos:station:LUMCON:103:1,2009-08-22T06:00:00Z,30.1889,-90.1683,1.0,2.1,230.0,4.1,'11111222,11111222,11111222' 
LUMCON,ioos:station:LUMCON:103:1,2009-08-22T07:00:00Z,30.1889,-90.1683,1.0,2.1,250.0,4.1,'11111222,11111222,11111222' 
LUMCON,ioos:station:LUMCON:103:1,2009-08-22T08:00:00Z,30.1889,-90.1683,1.0,2.1,280.0,3.1,'11111222,11111222,11111222' 
LUMCON,ioos:station:LUMCON:103:1,2009-08-22T09:00:00Z,30.1889,-90.1683,1.0,2.1,290.0,3.1,'11111222,11111222,11111222' 
LUMCON,ioos:station:LUMCON:103:1,2009-08-22T10:00:00Z,30.1889,-90.1683,1.0,2.1,290.0,2.6,'11111222,11111222,11111222' 
LUMCON,ioos:station:LUMCON:103:1,2009-08-22T11:00:00Z,30.1889,-90.1683,1.0,2.1,320.0,3.1,'11111222,11111222,11111222' 
LUMCON,ioos:station:LUMCON:103:1,2009-08-22T12:00:00Z,30.1889,-90.1683,1.0,1.5,260.0,2.6,'11111222,11111222,11111222' 
LUMCON,ioos:station:LUMCON:103:1,2009-08-22T13:00:00Z,30.1889,-90.1683,1.0,2.1,260.0,3.1,'11111222,11111222,11111222' 
LUMCON,ioos:station:LUMCON:103:1,2009-08-22T14:00:00Z,30.1889,-90.1683,1.0,5.1,290.0,9.8,'11111222,11111222,11111222' 
LUMCON,ioos:station:LUMCON:103:1,2009-08-22T15:00:00Z,30.1889,-90.1683,1.0,3.6,300.0,5.1,'11111222,11111222,11111222' 
LUMCON,ioos:station:LUMCON:103:1,2009-08-22T16:00:00Z,30.1889,-90.1683,1.0,3.6,320.0,5.1,'11111222,11111222,11111222' 
LUMCON,ioos:station:LUMCON:103:1,2009-08-22T17:00:00Z,30.1889,-90.1683,1.0,4.1,310.0,7.2,'11111222,11111222,11111222' 
LUMCON,ioos:station:LUMCON:103:1,2009-08-22T18:00:00Z,30.1889,-90.1683,1.0,4.6,330.0,6.7,'11111222,11111222,11111222' 
LUMCON,ioos:station:LUMCON:103:1,2009-08-22T19:00:00Z,30.1889,-90.1683,1.0,4.6,350.0,7.7,'11111222,11111222,11111222' 
LUMCON,ioos:station:LUMCON:103:1,2009-08-22T20:00:00Z,30.1889,-90.1683,1.0,5.7,340.0,9.8,'11111222,11111222,11111222' 
LUMCON,ioos:station:LUMCON:103:1,2009-08-22T21:00:00Z,30.1889,-90.1683,1.0,4.6,0.0,8.2,'11111222,11111222,11111222' 
LUMCON,ioos:station:LUMCON:103:1,2009-08-22T22:00:00Z,30.1889,-90.1683,1.0,4.6,0.0,8.2,'11111222,11111222,11111222' 
LUMCON,ioos:station:LUMCON:103:1,2009-08-22T23:00:00Z,30.1889,-90.1683,1.0,5.1,0.0,7.7,'11111222,11111222,11111222' 
LUMCON,ioos:station:LUMCON:103:1,2009-08-23T00:00:00Z,30.1889,-90.1683,1.0,2.6,10.0,4.1,'11111222,11111222,11111222' 
LUMCON,ioos:station:LUMCON:103:1,2009-08-23T01:00:00Z,30.1889,-90.1683,1.0,2.1,350.0,3.6,'11111222,11111222,11111222' 
LUMCON,ioos:station:LUMCON:103:1,2009-08-23T02:00:00Z,30.1889,-90.1683,1.0,1.5,30.0,3.1,'11111222,11111222,11111222' 
LUMCON,ioos:station:LUMCON:103:1,2009-08-23T03:00:00Z,30.1889,-90.1683,1.0,1.5,50.0,3.1,'11111222,11111222,11111222' 
LUMCON,ioos:station:LUMCON:103:1,2009-08-23T04:00:00Z,30.1889,-90.1683,1.0,2.1,0.0,4.6,'11111222,11111222,11111222' 
LUMCON,ioos:station:LUMCON:103:1,2009-08-23T05:00:00Z,30.1889,-90.1683,1.0,3.1,20.0,5.1,'11111222,11111222,11111222' 
LUMCON,ioos:station:LUMCON:103:1,2009-08-23T06:00:00Z,30.1889,-90.1683,1.0,4.1,20.0,7.7,'11111222,11111222,11111222' 
LUMCON,ioos:station:LUMCON:103:1,2009-08-23T07:00:00Z,30.1889,-90.1683,1.0,4.6,20.0,7.7,'11111222,11111222,11111222' 
LUMCON,ioos:station:LUMCON:103:1,2009-08-23T08:00:00Z,30.1889,-90.1683,1.0,4.1,20.0,7.2,'11111222,11111222,11111222' 
LUMCON,ioos:station:LUMCON:103:1,2009-08-23T09:00:00Z,30.1889,-90.1683,1.0,4.1,20.0,6.2,'11111222,11111222,11111222' 
LUMCON,ioos:station:LUMCON:103:1,2009-08-23T10:00:00Z,30.1889,-90.1683,1.0,3.1,20.0,4.6,'11111222,11111222,11111222' 
LUMCON,ioos:station:LUMCON:103:1,2009-08-23T11:00:00Z,30.1889,-90.1683,1.0,3.6,10.0,5.1,'11111222,11111222,11111222' 
LUMCON,ioos:station:LUMCON:103:1,2009-08-23T12:00:00Z,30.1889,-90.1683,1.0,3.6,10.0,7.2,'11111222,11111222,11111222' 
LUMCON,ioos:station:LUMCON:103:1,2009-08-23T13:00:00Z,30.1889,-90.1683,1.0,4.1,20.0,7.2,'11111222,11111222,11111222' 
LUMCON,ioos:station:LUMCON:103:1,2009-08-23T14:00:00Z,30.1889,-90.1683,1.0,4.6,20.0,7.7,'11111222,11111222,11111222' 
LUMCON,ioos:station:LUMCON:103:1,2009-08-23T15:00:00Z,30.1889,-90.1683,1.0,4.6,30.0,7.7,'11111222,11111222,11111222' 
LUMCON,ioos:station:LUMCON:103:1,2009-08-23T16:00:00Z,30.1889,-90.1683,1.0,4.6,40.0,6.7,'11111222,11111222,11111222' 
LUMCON,ioos:station:LUMCON:103:1,2009-08-23T17:00:00Z,30.1889,-90.1683,1.0,3.6,40.0,5.7,'11111222,11111222,11111222' 
LUMCON,ioos:station:LUMCON:103:1,2009-08-23T18:00:00Z,30.1889,-90.1683,1.0,4.1,0.0,7.2,'11111222,11111222,11111222' 
LUMCON,ioos:station:LUMCON:103:1,2009-08-23T19:00:00Z,30.1889,-90.1683,1.0,3.6,330.0,5.1,'11111222,11111222,11111222' 
LUMCON,ioos:station:LUMCON:103:1,2009-08-23T20:00:00Z,30.1889,-90.1683,1.0,3.6,360.0,6.7,'11111222,11144222,11111222' 
LUMCON,ioos:station:LUMCON:103:1,2009-08-23T21:00:00Z,30.1889,-90.1683,1.0,3.6,340.0,6.7,'11111222,11111222,11111222' 
LUMCON,ioos:station:LUMCON:103:1,2009-08-23T22:00:00Z,30.1889,-90.1683,1.0,2.6,340.0,4.6,'11111222,11111222,11111222' 
LUMCON,ioos:station:LUMCON:103:1,2009-08-23T23:00:00Z,30.1889,-90.1683,1.0,2.6,360.0,4.6,'11111222,11144222,11111222' 
LUMCON,ioos:station:LUMCON:103:1,2009-08-24T00:00:00Z,30.1889,-90.1683,1.0,2.6,10.0,3.6,'11111222,11111222,11111222' 
LUMCON,ioos:station:LUMCON:103:1,2009-08-24T01:00:00Z,30.1889,-90.1683,1.0,2.6,10.0,5.1,'11111222,11111222,11111222' 
LUMCON,ioos:station:LUMCON:103:1,2009-08-24T02:00:00Z,30.1889,-90.1683,1.0,2.6,20.0,4.6,'11111222,11111222,11111222' 
LUMCON,ioos:station:LUMCON:103:1,2009-08-24T03:00:00Z,30.1889,-90.1683,1.0,3.1,80.0,4.1,'11111222,11111222,11111222' 
LUMCON,ioos:station:LUMCON:103:1,2009-08-24T04:00:00Z,30.1889,-90.1683,1.0,2.1,20.0,3.1,'11111222,11111222,11111222' 
LUMCON,ioos:station:LUMCON:103:1,2009-08-24T05:00:00Z,30.1889,-90.1683,1.0,3.1,50.0,4.6,'11111222,11111222,11111222' 
LUMCON,ioos:station:LUMCON:103:1,2009-08-24T06:00:00Z,30.1889,-90.1683,1.0,3.6,60.0,6.7,'11111222,11111222,11111222' 
LUMCON,ioos:station:LUMCON:103:1,2009-08-24T07:00:00Z,30.1889,-90.1683,1.0,4.1,70.0,8.2,'11111222,11111222,11111222' 
LUMCON,ioos:station:LUMCON:103:1,2009-08-24T08:00:00Z,30.1889,-90.1683,1.0,4.6,80.0,8.8,'11111222,11111222,11111222' 
LUMCON,ioos:station:LUMCON:103:1,2009-08-24T09:00:00Z,30.1889,-90.1683,1.0,4.1,60.0,7.2,'11111222,11111222,11111222' 
LUMCON,ioos:station:LUMCON:103:1,2009-08-24T10:00:00Z,30.1889,-90.1683,1.0,3.6,20.0,6.7,'11111222,11111222,11111222' 
LUMCON,ioos:station:LUMCON:103:1,2009-08-24T11:00:00Z,30.1889,-90.1683,1.0,4.1,20.0,6.2,'11111222,11111222,11111222' 
LUMCON,ioos:station:LUMCON:103:1,2009-08-24T12:00:00Z,30.1889,-90.1683,1.0,3.6,20.0,5.1,'11111222,11111222,11111222' 
LUMCON,ioos:station:LUMCON:103:1,2009-08-24T13:00:00Z,30.1889,-90.1683,1.0,3.6,30.0,5.7,'11111222,11111222,11111222' 
LUMCON,ioos:station:LUMCON:103:1,2009-08-24T14:00:00Z,30.1889,-90.1683,1.0,3.6,50.0,4.6,'11111222,11111222,11111222' 
LUMCON,ioos:station:LUMCON:103:1,2009-08-24T15:00:00Z,30.1889,-90.1683,1.0,3.6,30.0,5.1,'11111222,11111222,11111222' 
LUMCON,ioos:station:LUMCON:103:1,2009-08-24T16:00:00Z,30.1889,-90.1683,1.0,2.6,60.0,3.6,'11111222,11111222,11111222' 
LUMCON,ioos:station:LUMCON:103:1,2009-08-24T17:00:00Z,30.1889,-90.1683,1.0,2.6,60.0,4.1,'11111222,11111222,11111222' 
LUMCON,ioos:station:LUMCON:103:1,2009-08-24T18:00:00Z,30.1889,-90.1683,1.0,3.6,340.0,6.2,'11111222,11111222,11111222' 
LUMCON,ioos:station:LUMCON:103:1,2009-08-24T20:00:00Z,30.1889,-90.1683,1.0,4.1,170.0,5.7,'11111222,11111222,11111222' 
LUMCON,ioos:station:LUMCON:103:1,2009-08-24T21:00:00Z,30.1889,-90.1683,1.0,0.5,160.0,2.1,'11111222,11111222,11111222' 
LUMCON,ioos:station:LUMCON:103:1,2009-08-24T22:00:00Z,30.1889,-90.1683,1.0,2.6,10.0,4.6,'11111222,11111222,11111222' 
LUMCON,ioos:station:LUMCON:103:1,2009-08-24T23:00:00Z,30.1889,-90.1683,1.0,2.1,20.0,3.6,'11111222,11111222,11111222' 
LUMCON,ioos:station:LUMCON:103:1,2009-08-25T00:00:00Z,30.1889,-90.1683,1.0,3.1,320.0,3.6,'11111222,11111222,11111222' 
LUMCON,ioos:station:LUMCON:103:1,2009-08-25T01:00:00Z,30.1889,-90.1683,1.0,3.6,350.0,4.6,'11111222,11111222,11111222' 
LUMCON,ioos:station:LUMCON:103:1,2009-08-25T02:00:00Z,30.1889,-90.1683,1.0,3.1,20.0,4.6,'11111222,11111222,11111222' 
LUMCON,ioos:station:LUMCON:103:1,2009-08-25T03:00:00Z,30.1889,-90.1683,1.0,4.6,20.0,5.7,'11111222,11111222,11111222' 
LUMCON,ioos:station:LUMCON:103:1,2009-08-25T04:00:00Z,30.1889,-90.1683,1.0,6.7,30.0,7.2,'11111222,11111222,11111222' 
LUMCON,ioos:station:LUMCON:103:1,2009-08-25T05:00:00Z,30.1889,-90.1683,1.0,5.7,30.0,6.2,'11111222,11111222,11111222' 
LUMCON,ioos:station:LUMCON:103:1,2009-08-25T06:00:00Z,30.1889,-90.1683,1.0,5.7,30.0,6.7,'11111222,11111222,11111222' 
LUMCON,ioos:station:LUMCON:103:1,2009-08-25T07:00:00Z,30.1889,-90.1683,1.0,5.7,40.0,6.7,'11111222,11111222,11111222' 
LUMCON,ioos:station:LUMCON:103:1,2009-08-25T08:00:00Z,30.1889,-90.1683,1.0,5.1,30.0,5.7,'11111222,11111222,11111222' 
LUMCON,ioos:station:LUMCON:103:1,2009-08-25T09:00:00Z,30.1889,-90.1683,1.0,3.1,10.0,4.1,'11111222,11111222,11111222' 
LUMCON,ioos:station:LUMCON:103:1,2009-08-25T10:00:00Z,30.1889,-90.1683,1.0,2.1,10.0,3.1,'11111222,11111222,11111222' 
LUMCON,ioos:station:LUMCON:103:1,2009-08-25T11:00:00Z,30.1889,-90.1683,1.0,2.6,0.0,3.1,'11111222,11111222,11111222' 
LUMCON,ioos:station:LUMCON:103:1,2009-08-25T12:00:00Z,30.1889,-90.1683,1.0,3.6,10.0,4.1,'11111222,11111222,11111222' 
LUMCON,ioos:station:LUMCON:103:1,2009-08-25T13:00:00Z,30.1889,-90.1683,1.0,4.6,20.0,5.1,'11111222,11111222,11111222' 
LUMCON,ioos:station:LUMCON:103:1,2009-08-25T14:00:00Z,30.1889,-90.1683,1.0,5.1,30.0,5.7,'11111222,11111222,11111222' 
LUMCON,ioos:station:LUMCON:103:1,2009-08-25T15:00:00Z,30.1889,-90.1683,1.0,4.1,50.0,4.6,'11111222,11111222,11111222' 
LUMCON,ioos:station:LUMCON:103:1,2009-08-25T17:00:00Z,30.1889,-90.1683,1.0,3.6,110.0,4.1,'11111222,11111222,11111222' 
LUMCON,ioos:station:LUMCON:103:1,2009-08-25T18:00:00Z,30.1889,-90.1683,1.0,3.1,130.0,3.6,'11111222,11111222,11111222' 
LUMCON,ioos:station:LUMCON:103:1,2009-08-25T19:00:00Z,30.1889,-90.1683,1.0,2.6,160.0,3.1,'11111222,11111222,11111222' 
LUMCON,ioos:station:LUMCON:103:1,2009-08-25T20:00:00Z,30.1889,-90.1683,1.0,2.1,120.0,2.6,'11111222,11111222,11111222' 
LUMCON,ioos:station:LUMCON:103:1,2009-08-26T19:00:00Z,30.1889,-90.1683,1.0,3.6,100.0,5.1,'11111222,11111222,11111222' 
LUMCON,ioos:station:LUMCON:103:1,2009-08-26T20:00:00Z,30.1889,-90.1683,1.0,3.6,120.0,5.1,'11111222,11111222,11111222' 
LUMCON,ioos:station:LUMCON:103:1,2009-08-26T21:00:00Z,30.1889,-90.1683,1.0,3.6,130.0,4.6,'11111222,11111222,11111222' 
LUMCON,ioos:station:LUMCON:103:1,2009-08-26T22:00:00Z,30.1889,-90.1683,1.0,4.1,130.0,5.7,'11111222,11111222,11111222' 
LUMCON,ioos:station:LUMCON:103:1,2009-08-26T23:00:00Z,30.1889,-90.1683,1.0,4.1,120.0,5.7,'11111222,11111222,11111222' 
LUMCON,ioos:station:LUMCON:103:1,2009-08-27T00:00:00Z,30.1889,-90.1683,1.0,4.1,110.0,6.2,'11111222,11111222,11111222' 
LUMCON,ioos:station:LUMCON:103:1,2009-08-27T01:00:00Z,30.1889,-90.1683,1.0,4.6,120.0,7.7,'11111222,11111222,11111222' 
LUMCON,ioos:station:LUMCON:103:1,2009-08-27T02:00:00Z,30.1889,-90.1683,1.0,4.6,130.0,5.7,'11111222,11111222,11111222' 
LUMCON,ioos:station:LUMCON:103:1,2009-08-27T03:00:00Z,30.1889,-90.1683,1.0,4.1,120.0,6.7,'11111222,11111222,11111222' 
LUMCON,ioos:station:LUMCON:103:1,2009-08-27T04:00:00Z,30.1889,-90.1683,1.0,3.1,130.0,4.6,'11111222,11111222,11111222' 
LUMCON,ioos:station:LUMCON:103:1,2009-08-27T05:00:00Z,30.1889,-90.1683,1.0,2.6,130.0,4.1,'11111222,11111222,11111222' 
LUMCON,ioos:station:LUMCON:103:1,2009-08-27T06:00:00Z,30.1889,-90.1683,1.0,2.1,120.0,4.1,'11111222,11111222,11111222' 
LUMCON,ioos:station:LUMCON:103:1,2009-08-27T07:00:00Z,30.1889,-90.1683,1.0,2.6,120.0,4.1,'11111222,11111222,11111222' 
LUMCON,ioos:station:LUMCON:103:1,2009-08-27T08:00:00Z,30.1889,-90.1683,1.0,2.1,50.0,4.1,'11111222,11111222,11111222' 
LUMCON,ioos:station:LUMCON:103:1,2009-08-27T09:00:00Z,30.1889,-90.1683,1.0,1.5,30.0,2.6,'11111222,11111222,11111222' 
LUMCON,ioos:station:LUMCON:103:1,2009-08-27T10:00:00Z,30.1889,-90.1683,1.0,2.6,20.0,3.6,'11111222,11111222,11111222' 
LUMCON,ioos:station:LUMCON:103:1,2009-08-27T11:00:00Z,30.1889,-90.1683,1.0,3.1,0.0,5.1,'11111222,11111222,11111222' 
LUMCON,ioos:station:LUMCON:103:1,2009-08-27T12:00:00Z,30.1889,-90.1683,1.0,3.6,360.0,5.1,'11111222,11144222,11111222' 
LUMCON,ioos:station:LUMCON:103:1,2009-08-27T13:00:00Z,30.1889,-90.1683,1.0,3.6,340.0,6.2,'11111222,11111222,11111222' 
LUMCON,ioos:station:LUMCON:103:1,2009-08-27T14:00:00Z,30.1889,-90.1683,1.0,4.6,10.0,7.2,'11111222,11111222,11111222' 
LUMCON,ioos:station:LUMCON:103:1,2009-08-27T15:00:00Z,30.1889,-90.1683,1.0,4.6,30.0,7.7,'11111222,11111222,11111222' 
LUMCON,ioos:station:LUMCON:103:1,2009-08-27T16:00:00Z,30.1889,-90.1683,1.0,4.6,40.0,6.2,'11111222,11111222,11111222' 
LUMCON,ioos:station:LUMCON:103:1,2009-08-27T17:00:00Z,30.1889,-90.1683,1.0,3.6,30.0,5.1,'11111222,11111222,11111222' 
LUMCON,ioos:station:LUMCON:103:1,2009-08-27T18:00:00Z,30.1889,-90.1683,1.0,3.6,50.0,6.2,'11111222,11111222,11111222' 
LUMCON,ioos:station:LUMCON:103:1,2009-08-27T19:00:00Z,30.1889,-90.1683,1.0,3.1,80.0,5.1,'11111222,11111222,11111222' 
LUMCON,ioos:station:LUMCON:103:1,2009-08-27T20:00:00Z,30.1889,-90.1683,1.0,3.1,80.0,5.1,'11111222,11111222,11111222' 
LUMCON,ioos:station:LUMCON:103:1,2009-08-27T21:00:00Z,30.1889,-90.1683,1.0,3.1,90.0,5.7,'11111222,11111222,11111222' 
LUMCON,ioos:station:LUMCON:103:1,2009-08-27T22:00:00Z,30.1889,-90.1683,1.0,3.6,70.0,5.7,'11111222,11111222,11111222' 